Tracking 19905 objects as of 17-Oct-2019
HD Live streaming from Space Station
objects crossing your sky now

THORAD DELTA 1 DEB

Track THORAD DELTA 1 DEB now!
10-day predictions


NORAD ID: 42608
Int'l Code: 1974-089FZ
Perigee: 1,506.6 km
Apogee: 1,623.8 km
Inclination: 102.2 °
Period: 117.3 minutes
Semi major axis: 7936 km
RCS: Unknown
Launch date: November 15, 1974
Source: United States (US)
Launch site: AIR FORCE WESTERN TEST RANGE (AFWTR)

Note: This is SATELLITE DEBRIS
aabbcc
Your satellite tracking list
Your tracking list is empty




NASA's NSSDC Master Catalog

Two Line Element Set (TLE):
1 42608U 74089FZ  19284.35529648 -.00000026 +00000-0 +16010-3 0  9994
2 42608 102.1924 252.0125 0073875 257.0805 102.1992 12.27960619263801
Source of the keplerian elements: AFSPC